Miscellaneous Local Product
Issued by NWS Hastings, NE

Home | Current Version | Previous Version | Graphics & Text | Print | Product List | Glossary On
Versions: 1 2 3 4 5 6 7 8 9 10 11 12 13 14 15 16 17 18 19 20 21 22 23 24 25 26 27 28 29 30 31 32 33 34 35 36 37 38 39 40 41 42 43 44 45 46 47 48 49 50
000
AXUS43 KGID 211810
MISGRI

GID CWA HOURLY WEATHER ROUNDUP
NATIONAL WEATHER SERVICE HASTINGS NE
100 PM CDT SUN SEP 21 2014

NOTE: "FAIR" INDICATES FEW OR NO CLOUDS BELOW 12,000 FEET WITH NO
SIGNIFICANT WEATHER AND/OR OBSTRUCTIONS TO VISIBILITY.

...SOUTH CENTRAL NEBRASKA...

CITY           SKY/WX    TMP DP  RH WIND       PRES   REMARKS
GRAND ISLAND   SUNNY     72  42  34 N15G22    30.30F
HASTINGS       SUNNY     71  40  32 N14G22    30.30F
KEARNEY        SUNNY     70  43  37 NW10      30.32F
ORD            SUNNY     71  43  36 N13G18    30.30S
YORK           SUNNY     68  46  45 N14G26    30.28S
AURORA         SUNNY     71  38  30 N15       30.29F
LEXINGTON      MOSUNNY   72  40  30 N3        30.34S
HOLDREGE       MOSUNNY   71  37  29 N10       30.32F
HEBRON         SUNNY     74  36  25 N16G23    30.27S

...NEBRASKA PANHANDLE...

CITY           SKY/WX    TMP DP  RH WIND       PRES   REMARKS
CHADRON        SUNNY     71  38  29 E5        30.35F
ALLIANCE       PTSUNNY   69  36  29 VRB3      30.37F
SCOTTSBLUFF    PTSUNNY   69  38  32 SE13      30.37F
SIDNEY         SUNNY     70  37  29 SE10      30.39F

...WESTERN AND NORTH CENTRAL NEBRASKA...

CITY           SKY/WX    TMP DP  RH WIND       PRES   REMARKS
VALENTINE      SUNNY     71  37  28 N10       30.33F
AINSWORTH      SUNNY     68  39  34 N10G17    30.33F
ONEILL         SUNNY     69  46  43 N15G22    30.31F
BROKEN BOW     SUNNY     73  39  29 N8        30.32F
IMPERIAL       PTSUNNY   71  35  26 SE8       30.36F
NORTH PLATTE   CLOUDY    72  40  31 VRB5      30.35F
MCCOOK         SUNNY     74  38  27 NE9       30.34F

...EASTERN NEBRASKA...

CITY           SKY/WX    TMP DP  RH WIND       PRES   REMARKS
NORFOLK        SUNNY     70  46  42 N20       30.26F
SO SIOUX CITY  MOSUNNY   70  48  45 NW16G26   30.23F
TEKAMAH        SUNNY     72  47  40 NW18G26   30.23S
COLUMBUS       SUNNY     72  45  37 NW10G21   30.28S
ALBION         SUNNY     70  40  34 NW14      30.29S
OMAHA EPPLEY   MOSUNNY   70  49  47 NW15G22   30.22S
OFFUTT AFB     SUNNY     71  49  47 NW16G24   30.22S
MILLARD        SUNNY     69  49  47 N9G20     30.23S
LINCOLN        SUNNY     73  46  38 N20G25    30.25F
NEBRASKA CITY    N/A     71  36  28 N10G18    30.22F
BEATRICE       SUNNY     73  44  35 N15G23    30.24F
FALLS CITY     SUNNY     73  46  38 NW16G28   30.20S

...NORTHERN KANSAS...

CITY           SKY/WX    TMP DP  RH WIND       PRES   REMARKS
GOODLAND       CLOUDY    69  38  32 E9        30.38F
HILL CITY      SUNNY     76  39  26 VRB7      30.32F
NORTON         CLEAR     75  28  17 N8        30.31
SMITH CENTER   SUNNY     75  37  25 N14G20    30.29F
BELOIT         SUNNY     79  37  22 N10       30.26S
HAYS           SUNNY     73  43  33 NE10      30.30F
RUSSELL        SUNNY     76  44  32 N12G20    30.28S
CONCORDIA      SUNNY     75  42  30 N13G22    30.26F
SALINA         SUNNY     78  47  33 N14       30.26S
TOPEKA         SUNNY     77  47  34 N15G24    30.21S



USA.gov is the U.S. government's official web portal to all federal, state and local government web resources and services.